Date,TemperatureHighF,TemperatureAvgF,TemperatureLowF,DewpointHighF,DewpointAvgF,DewpointLowF,HumidityHigh,HumidityAvg,HumidityLow,PressureMaxIn,PressureMinIn,WindSpeedMaxMPH,WindSpeedAvgMPH,GustSpeedMaxMPH,PrecipitationSumIn
2013-1-1,34,19,6,21,12,1,87,75,54,30.61,30.45,0,0,0,0.00
2013-1-2,34,20,5,21,12,0,86,72,54,30.56,30.45,10,2,14,0.00
2013-1-3,38,26,15,28,20,11,90,79,67,30.71,30.52,12,4,16,0.00
2013-1-4,39,27,13,26,19,9,91,74,55,30.71,30.58,16,4,20,0.00
2013-1-5,39,35,29,34,29,21,88,78,71,30.59,30.40,13,6,17,0.00
2013-1-6,36,29,22,30,21,17,82,73,57,30.67,30.42,16,6,20,0.00
2013-1-7,49,36,24,29,23,18,82,63,44,30.65,30.41,14,6,17,0.00
2013-1-8,54,43,33,33,27,23,70,55,40,30.48,30.34,11,6,15,0.00
2013-1-9,60,44,33,41,33,27,88,67,43,30.75,30.47,9,2,12,0.00
2013-1-10,42,40,38,30,29,28,67,66,63,30.72,30.66,5,3,10,0.00
2013-1-11,62,54,44,51,48,43,100,81,62,30.13,30.00,22,10,24,0.00
2013-1-12,58,39,26,47,29,22,87,68,44,30.37,30.06,15,4,15,0.00
2013-1-13,26,20,12,23,14,6,87,76,61,30.67,30.29,0,0,0,0.00
2013-1-14,32,16,4,22,8,0,85,71,51,30.79,30.66,4,0,6,0.00
2013-1-15,33,18,7,20,10,1,86,71,53,30.71,30.47,7,1,8,0.00
2013-1-16,42,27,11,23,17,6,83,67,44,30.48,30.32,19,6,25,0.00
2013-1-17,46,34,26,30,24,19,87,70,47,30.78,30.44,5,2,12,0.00
2013-1-18,56,42,28,31,26,22,76,56,34,30.76,30.39,23,11,29,0.00
2013-1-19,59,49,42,37,32,27,67,54,41,30.51,30.26,28,11,31,0.00
2013-1-20,42,29,21,29,15,9,73,56,43,30.67,30.50,6,2,11,0.00
2013-1-21,24,17,14,10,3,-5,71,54,35,30.70,30.64,16,5,21,0.00
2013-1-22,26,17,12,8,4,0,76,57,46,30.77,30.63,5,2,10,0.00
2013-1-23,45,27,12,22,15,6,80,64,40,30.70,30.46,13,4,17,0.00
2013-1-24,26,20,10,12,7,2,69,56,46,30.87,30.51,9,5,14,0.00
2013-1-25,43,32,25,21,16,11,63,52,38,30.57,30.42,14,5,18,0.00
2013-1-26,48,33,21,22,18,13,73,56,36,30.68,30.53,5,2,11,0.00
2013-1-27,55,43,30,51,37,18,92,81,60,30.53,30.16,16,9,22,0.00
2013-1-28,75,63,55,63,56,51,93,79,58,30.24,30.09,18,7,24,0.00
2013-1-29,66,57,43,60,55,41,100,91,77,30.10,29.76,19,6,30,0.02
2013-1-30,42,31,24,40,27,16,100,86,69,30.26,29.70,13,2,22,0.00
2013-1-31,28,20,8,20,11,-1,81,68,54,30.74,30.25,0,0,0,0.00
2013-2-1,29,17,5,14,5,-1,75,61,50,30.77,30.48,0,0,0,0.00
2013-2-2,45,32,28,41,23,14,87,68,55,30.49,30.35,13,5,17,0.00
2013-2-3,43,34,27,29,20,14,89,60,36,30.54,30.24,16,6,24,0.00
2013-2-4,56,39,23,35,25,17,81,61,45,30.31,30.12,15,3,18,0.00
2013-2-5,54,35,20,34,26,16,90,72,45,30.45,30.22,17,4,20,0.19
2013-2-6,60,43,26,37,28,23,90,61,32,30.50,30.30,11,5,17,0.00
2013-2-7,50,43,35,48,38,29,96,85,48,30.44,30.20,9,3,14,0.00
2013-2-8,35,32,31,33,29,27,91,88,84,30.68,30.44,6,2,10,0.00
2013-2-9,48,37,31,36,31,27,88,80,61,30.63,30.23,12,6,17,0.00
2013-2-10,62,48,37,53,38,24,96,73,33,30.23,29.80,35,16,45,0.00
2013-2-11,49,40,29,29,26,22,74,59,46,30.47,30.13,28,12,36,0.00
2013-2-12,43,33,22,32,25,18,91,74,55,30.49,30.27,4,1,7,0.00
2013-2-13,51,40,30,32,29,25,82,67,46,30.28,30.13,16,7,24,0.00
2013-2-14,51,43,35,36,31,24,84,65,48,30.42,30.13,15,6,21,0.00
2013-2-15,42,32,21,25,17,10,74,57,32,30.63,30.42,10,3,17,0.00
2013-2-16,37,26,15,20,14,10,82,62,41,30.61,30.45,13,3,17,0.00
2013-2-17,56,42,29,30,24,19,66,52,34,30.45,30.12,14,5,19,0.00
2013-2-18,57,45,28,48,35,18,89,69,54,30.30,29.81,18,11,25,0.00
2013-2-19,31,25,20,19,13,8,72,61,46,30.64,30.30,21,4,25,0.00
2013-2-20,27,21,13,15,11,5,75,65,59,30.72,30.56,7,2,11,0.00
2013-2-21,29,24,22,27,19,13,92,81,68,30.59,30.10,13,6,19,0.00
2013-2-22,32,27,14,31,23,10,95,84,73,30.37,30.09,18,7,23,0.00
2013-2-23,34,21,7,23,14,4,90,75,55,30.38,30.30,10,2,12,0.00
2013-2-24,54,31,9,32,20,5,91,67,38,30.41,30.30,6,2,9,0.00
2013-2-25,45,34,26,32,27,20,91,74,57,30.36,29.96,12,4,17,0.00
2013-2-26,33,33,33,32,31,31,94,93,91,29.96,29.76,0,0,0,0.00
2013-2-27,33,31,28,30,28,25,93,89,84,30.26,30.05,19,5,24,0.00
2013-2-28,37,32,28,32,27,25,89,83,75,30.45,30.26,12,5,14,0.00
2013-3-1,41,31,23,33,26,19,86,80,67,30.57,30.42,7,2,8,0.00
2013-3-2,40,27,14,25,19,9,86,72,50,30.63,30.53,8,2,11,0.00
2013-3-3,41,27,10,28,19,6,89,73,55,30.53,30.24,7,2,9,0.00
2013-3-4,51,39,32,34,29,26,81,68,50,30.24,30.04,8,4,13,0.00
2013-3-5,37,33,30,32,26,20,92,76,56,30.54,30.18,24,10,36,0.00
2013-3-6,43,32,19,26,21,14,79,66,49,30.71,30.54,8,3,14,0.00
2013-3-7,51,33,17,31,24,13,88,70,46,30.69,30.56,6,3,10,0.00
2013-3-8,54,41,30,36,30,25,84,68,48,30.64,30.41,9,3,14,0.00
2013-3-9,58,48,37,46,38,31,91,71,51,30.42,30.03,18,5,23,0.01
2013-3-10,55,48,34,52,45,32,97,92,83,30.11,29.91,19,8,27,0.00
2013-3-11,34,32,29,32,27,24,94,84,73,30.31,30.07,23,12,25,0.00
2013-3-12,45,34,26,32,25,22,86,72,53,30.57,30.29,20,8,27,0.00
2013-3-13,46,33,25,24,20,17,74,61,38,30.77,30.57,12,4,18,0.00
2013-3-14,31,29,28,22,21,20,72,71,69,30.69,30.62,4,1,6,0.00
2013-3-15,77,56,34,50,41,31,94,62,33,30.40,30.00,17,5,17,0.00
2013-3-16,59,45,37,48,37,31,84,75,57,30.40,29.99,8,3,10,0.00
2013-3-17,37,34,32,32,30,28,93,86,78,30.40,30.08,11,6,14,0.01
2013-3-18,52,40,34,40,31,19,96,75,42,30.36,30.03,29,8,36,0.00
2013-3-19,45,36,28,28,18,10,79,51,28,30.54,30.35,10,4,15,0.00
2013-3-20,36,30,21,29,18,8,88,62,37,30.63,30.44,17,6,25,0.00
2013-3-21,40,28,14,20,16,9,83,61,43,30.45,30.27,7,2,11,0.00
2013-3-22,42,35,31,28,24,19,70,65,58,30.34,30.28,6,3,8,0.00
2013-3-23,53,41,34,34,29,26,85,64,45,30.35,30.19,9,4,14,0.01
2013-3-24,37,32,30,33,30,23,93,89,84,30.26,30.02,9,2,14,0.00
2013-3-25,38,30,26,33,26,23,92,83,69,30.56,30.24,10,3,17,0.00
2013-3-26,42,32,24,31,22,18,87,68,47,30.68,30.55,12,4,20,0.00
2013-3-27,50,35,20,31,25,16,91,70,48,30.69,30.57,7,2,8,0.00
2013-3-28,61,46,36,45,36,29,78,68,52,30.62,30.50,8,4,11,0.00
2013-3-29,67,51,34,49,39,30,91,68,42,30.56,30.48,8,2,11,0.00
2013-3-30,51,47,42,48,44,37,96,89,73,30.50,30.23,10,3,12,0.01
2013-3-31,66,54,44,54,43,30,100,73,40,30.30,30.21,17,4,22,0.00
2013-4-1,52,42,31,33,26,18,76,57,35,30.58,30.30,8,2,14,0.00
2013-4-2,53,37,25,27,22,18,79,58,33,30.66,30.57,5,2,9,0.00
2013-4-3,55,42,29,28,24,21,72,52,31,30.71,30.55,11,3,12,0.00
2013-4-4,65,47,30,36,29,24,84,53,27,30.56,30.37,7,1,9,0.00
2013-4-5,70,53,35,43,36,28,86,56,34,30.52,30.28,8,3,12,0.00
2013-4-6,74,63,54,51,42,36,61,48,37,30.29,30.01,28,12,32,0.00
2013-4-7,79,63,44,54,46,36,93,61,26,30.24,30.03,13,3,21,0.01
2013-4-8,80,67,53,63,58,47,92,75,52,30.15,30.01,19,6,26,0.00
2013-4-9,77,70,66,64,60,58,77,71,62,30.19,30.07,18,9,24,0.00
2013-4-10,71,56,49,62,53,48,100,90,71,30.23,29.96,22,4,38,0.01
2013-4-11,49,47,45,48,47,44,100,99,99,30.05,30.02,17,9,23,0.00
2013-4-12,44,39,34,34,32,29,83,76,67,30.33,30.04,18,9,20,0.00
2013-4-13,60,46,32,42,36,29,88,69,49,30.40,30.15,11,4,14,0.00
2013-4-14,80,65,46,57,47,38,91,55,26,30.15,29.85,22,12,29,0.00
2013-4-15,60,53,46,57,49,43,92,88,76,30.35,30.05,8,2,10,0.00
2013-4-16,49,45,41,44,42,39,96,87,78,30.48,30.31,7,4,10,0.00
2013-4-17,71,54,48,68,52,43,100,92,79,30.44,29.94,14,6,17,0.00
2013-4-18,64,50,39,63,48,32,99,91,74,30.16,29.81,27,10,30,0.00
2013-4-19,50,42,35,32,28,23,76,61,38,30.40,30.13,29,14,33,0.00
2013-4-20,58,44,27,34,28,23,88,58,34,30.60,30.40,7,2,9,0.00
2013-4-21,68,54,42,43,37,30,69,55,36,30.65,30.49,15,6,19,0.00
2013-4-22,72,60,48,45,39,32,69,51,28,30.54,30.24,16,5,23,0.00
2013-4-23,58,44,38,48,40,36,94,86,63,30.41,30.24,10,2,14,0.00
2013-4-24,52,42,33,36,32,28,95,70,42,30.55,30.38,17,6,18,0.00
2013-4-25,66,52,38,38,34,30,79,54,29,30.65,30.53,12,5,14,0.00
2013-4-26,61,54,50,49,43,36,84,69,52,30.64,30.53,16,7,21,0.00
2013-4-27,53,50,48,52,49,45,100,95,84,30.58,30.30,7,2,10,0.00
2013-4-28,68,56,50,56,52,49,100,86,63,30.32,30.19,10,3,13,0.00
2013-4-29,87,70,53,66,56,48,88,67,32,30.21,30.03,14,8,21,0.00
2013-4-30,86,75,65,60,54,44,77,53,29,30.24,30.06,17,9,22,0.00
2013-5-1,86,74,62,59,54,49,70,52,34,30.40,30.24,11,5,17,0.00
2013-5-2,69,47,37,53,41,34,91,82,59,30.58,30.40,6,3,11,0.01
2013-5-3,40,37,36,38,36,34,96,94,91,30.50,30.15,7,3,11,0.00
2013-5-4,49,42,36,44,39,35,97,91,81,30.35,30.13,7,2,9,0.00
2013-5-5,67,54,38,58,50,36,100,88,69,30.37,30.26,8,1,11,0.00
2013-5-6,79,64,53,63,56,51,100,78,48,30.37,30.29,8,2,10,0.00
2013-5-7,82,67,51,60,51,45,94,63,32,30.39,30.31,6,1,8,0.00
2013-5-8,79,65,52,62,54,48,90,70,45,30.37,30.28,16,3,19,0.01
2013-5-9,76,64,59,66,60,56,95,86,65,30.28,30.17,15,4,18,0.00
2013-5-10,61,58,49,60,56,46,100,93,83,30.36,30.19,5,1,8,0.00
2013-5-11,69,56,43,58,42,29,100,66,35,30.53,30.34,10,3,21,0.00
2013-5-12,67,51,35,40,32,26,86,54,27,30.59,30.47,10,2,16,0.00
2013-5-13,76,60,38,49,42,34,88,56,32,30.52,30.29,9,3,14,0.00
2013-5-14,90,75,59,58,53,49,76,50,29,30.29,30.14,19,10,28,0.00
2013-5-15,75,73,71,53,52,51,54,49,46,30.22,30.20,11,9,15,0.00
2013-5-16,84,72,63,69,63,54,91,75,52,30.27,30.18,12,3,14,0.00
2013-5-17,80,70,62,66,61,54,88,74,59,30.29,30.22,7,2,8,0.00
2013-5-18,86,74,60,70,66,58,100,77,55,30.31,30.16,10,3,13,0.00
2013-5-19,89,79,70,74,68,62,92,72,51,30.24,29.96,20,8,32,0.00
2013-5-20,80,68,62,68,62,58,93,83,59,30.22,29.96,20,9,27,0.04
2013-5-21,76,68,60,64,61,56,96,78,60,30.11,30.00,14,7,19,0.00
2013-5-22,68,63,58,59,56,53,93,77,65,30.24,30.02,15,7,21,0.00
2013-5-23,69,61,51,59,54,47,87,77,65,30.55,30.23,8,4,14,0.00
2013-5-24,75,60,45,54,47,41,96,67,35,30.72,30.54,10,2,13,0.00
2013-5-25,75,62,52,64,52,42,89,73,59,30.58,30.41,13,4,20,0.00
2013-5-26,84,70,59,71,63,56,94,82,62,30.47,30.32,10,4,14,0.04
2013-5-27,74,67,61,69,65,60,100,93,80,30.34,30.08,13,4,23,0.02
2013-5-28,81,73,67,73,68,65,94,86,73,30.21,30.06,18,7,21,0.00
2013-5-29,85,76,-7,71,66,-11,92,73,59,30.26,30.08,20,9,21,0.00
2013-5-30,82,70,64,71,64,60,94,83,61,30.16,30.00,22,9,27,0.00
2013-5-31,77,67,62,74,65,61,100,94,87,30.22,29.99,10,4,14,0.00
2013-6-1,74,67,62,68,61,55,100,83,58,30.26,30.03,17,7,21,0.00
2013-6-2,67,61,57,58,55,53,88,81,73,30.38,30.25,8,3,13,0.00
2013-6-3,77,64,52,57,53,50,95,71,46,30.43,30.30,7,2,9,0.00
2013-6-4,80,66,55,64,57,51,88,75,55,30.39,30.28,8,3,14,0.00
2013-6-5,76,66,55,67,61,53,97,85,70,30.36,30.22,7,1,9,0.00
2013-6-6,80,69,59,66,59,52,100,74,44,30.27,30.20,8,1,14,0.00
2013-6-7,78,65,51,62,55,49,96,73,50,30.31,30.24,7,1,14,0.00
2013-6-8,81,67,50,64,55,48,97,68,43,30.29,30.19,9,3,15,0.00
2013-6-9,78,69,64,66,61,58,92,78,60,30.22,30.09,14,5,18,0.00
2013-6-10,85,71,62,67,62,59,90,76,52,30.24,30.11,10,3,15,0.00
2013-6-11,90,78,64,72,67,60,92,71,49,30.25,30.17,18,6,23,0.00
2013-6-12,79,78,78,68,67,67,71,70,68,30.20,30.19,12,8,15,0.00
2013-6-13,90,76,66,69,63,58,77,65,42,30.36,30.17,9,3,13,0.00
2013-6-14,86,74,60,70,63,57,97,71,45,30.42,30.28,11,2,14,0.00
2013-6-15,88,75,68,76,69,64,95,81,64,30.42,30.25,20,6,22,0.00
2013-6-16,86,74,67,78,71,66,100,89,73,30.36,30.24,10,2,11,0.00
2013-6-17,84,74,67,76,71,64,100,89,77,30.31,30.24,9,2,11,0.00
2013-6-18,91,75,64,74,66,60,100,76,40,30.34,30.28,6,2,8,0.00
2013-6-19,90,76,60,72,64,59,100,72,45,30.41,30.33,6,1,8,0.00
2013-6-20,89,79,66,72,67,62,92,69,50,30.42,30.33,13,5,17,0.00
2013-6-21,94,83,74,77,72,66,81,70,54,30.40,30.28,14,7,18,0.00
2013-6-22,92,83,76,76,73,67,87,72,56,30.40,30.26,12,7,18,0.00
2013-6-23,90,75,69,76,68,64,94,81,60,30.36,30.23,11,6,17,0.00
2013-6-24,92,81,70,76,72,66,94,76,59,30.37,30.21,12,7,19,0.00
2013-6-25,90,82,77,76,72,69,80,72,60,30.27,30.12,16,8,21,0.00
2013-6-26,96,84,74,79,72,62,85,69,37,30.17,30.07,16,8,23,0.00
2013-6-27,93,80,67,75,70,63,93,73,46,30.30,30.18,12,2,19,0.00
2013-6-28,91,80,70,73,65,57,95,65,36,30.23,30.11,14,5,20,0.00
2013-6-29,83,72,65,67,61,58,88,68,48,30.16,30.05,15,4,21,0.00
2013-6-30,80,70,64,68,63,60,92,78,58,30.33,30.16,5,2,14,0.00
2013-7-1,86,72,58,65,59,53,97,67,37,30.38,30.32,7,2,11,0.00
2013-7-2,87,72,57,63,56,52,87,62,38,30.42,30.35,8,2,12,0.00
2013-7-3,88,71,58,62,58,53,95,67,37,30.41,30.32,8,3,12,0.00
2013-7-4,89,72,59,65,58,54,90,64,34,30.41,30.32,9,2,12,0.00
2013-7-5,90,76,63,66,61,56,87,63,36,30.40,30.29,13,4,13,0.00
2013-7-6,92,79,67,69,64,59,87,63,39,30.36,30.26,10,5,14,0.00
2013-7-7,93,81,70,71,66,62,84,63,43,30.36,30.29,12,6,17,0.00
2013-7-8,93,84,77,72,68,65,69,60,47,30.41,30.33,12,7,18,0.00
2013-7-9,96,86,76,74,71,67,79,62,48,30.39,30.22,14,6,20,0.00
2013-7-10,97,84,69,80,70,60,92,66,36,30.37,30.21,12,4,15,0.00
2013-7-11,91,76,60,70,60,57,96,63,35,30.42,30.35,7,2,8,0.00
2013-7-12,89,74,58,68,58,52,96,64,32,30.46,30.36,11,3,14,0.00
2013-7-13,87,72,59,64,60,54,92,71,44,30.45,30.35,7,2,11,0.00
2013-7-14,91,77,61,70,63,58,97,67,40,30.47,30.39,11,3,14,0.00
2013-7-15,94,80,68,75,70,64,95,75,50,30.56,30.47,8,2,13,0.00
2013-7-16,96,82,71,76,71,68,100,73,45,30.62,30.54,8,3,11,0.00
2013-7-17,97,84,73,76,72,68,92,70,43,30.66,30.52,8,2,13,0.00
2013-7-18,98,85,72,74,71,67,93,66,40,30.57,30.34,9,3,14,0.00
2013-7-19,97,86,74,72,69,64,84,60,38,30.35,30.20,12,5,18,0.00
2013-7-20,94,83,76,77,71,68,81,70,51,30.27,30.18,10,4,14,0.00
2013-7-21,85,75,69,72,69,66,96,82,64,30.27,30.19,12,3,17,0.00
2013-7-22,93,80,66,77,71,65,100,78,53,30.22,30.10,11,3,13,0.00
2013-7-23,95,80,68,75,68,61,94,70,48,30.28,30.11,8,2,13,0.00
2013-7-24,76,65,60,66,61,58,95,86,69,30.35,30.27,5,1,8,0.00
2013-7-25,87,73,56,66,60,54,97,67,42,30.46,30.36,9,3,10,0.00
2013-7-26,79,72,67,72,66,60,95,82,66,30.39,30.30,13,5,16,0.00
2013-7-27,78,64,55,63,57,52,96,79,43,30.40,30.34,7,2,11,0.00
2013-7-28,83,66,49,61,51,46,96,64,33,30.40,30.34,11,3,17,0.00
2013-7-29,72,65,54,67,60,50,97,85,64,30.48,30.39,6,2,8,0.00
2013-7-30,87,74,66,76,70,64,97,86,66,30.40,30.31,6,2,8,0.00
2013-7-31,82,74,64,73,68,61,96,82,65,30.42,30.35,8,1,9,0.00
2013-8-1,90,75,62,72,64,43,100,74,40,30.44,30.30,73,3,73,0.17
2013-8-2,79,72,68,74,68,64,97,88,78,30.32,30.23,11,3,14,0.00
2013-8-3,92,76,67,76,69,62,100,82,53,30.48,30.28,5,2,8,0.19
2013-8-4,80,72,62,67,64,58,93,77,60,30.52,30.38,13,2,97,0.02
2013-8-5,86,74,66,76,70,63,94,86,72,30.41,30.18,11,2,17,0.00
2013-8-6,89,78,70,75,72,69,100,84,62,30.24,30.15,16,4,19,0.00
2013-8-7,88,77,71,77,72,69,100,87,67,30.29,30.14,12,5,15,0.00
2013-8-8,84,73,65,76,69,64,100,89,71,30.34,30.25,6,1,8,0.00
2013-8-9,116,74,67,100,70,66,100,88,75,30.44,30.31,10,1,12,0.17
2013-8-10,90,76,64,70,64,58,100,70,39,30.52,30.42,99,3,99,0.00
2013-8-11,90,75,58,66,60,56,97,66,38,30.50,30.37,10,2,11,0.00
2013-8-12,84,73,68,78,68,62,95,86,75,30.40,30.29,10,1,14,0.00
2013-8-13,86,72,61,72,63,55,100,76,46,30.48,30.33,5,1,8,0.00
2013-8-14,64,61,59,56,55,54,86,82,76,30.49,30.47,2,0,2,0.00
2013-8-15,79,66,55,61,55,51,94,70,46,30.50,30.40,7,2,8,0.00
2013-8-16,81,68,57,63,56,52,92,68,42,30.50,30.44,7,2,8,0.00
2013-8-17,85,69,51,67,56,49,100,69,40,30.54,30.44,7,2,9,0.00
2013-8-18,87,71,55,69,61,53,97,74,47,30.52,30.42,6,1,8,0.00
2013-8-19,88,74,60,71,63,58,100,74,46,30.46,30.35,9,2,11,0.00
2013-8-20,90,77,64,71,65,61,95,71,42,30.44,30.35,10,3,14,0.00
2013-8-21,91,79,67,70,66,64,92,69,44,30.45,30.36,11,4,17,0.00
2013-8-22,92,81,70,73,70,66,94,73,50,30.45,30.36,9,2,12,0.00
2013-8-23,97,82,68,78,70,67,100,73,43,30.45,30.35,7,2,9,0.00
2013-8-24,96,82,70,76,68,59,91,67,33,30.52,30.42,10,3,13,0.00
2013-8-25,95,81,69,72,64,52,89,63,27,30.58,30.47,10,4,14,0.00
2013-8-26,96,82,71,74,69,63,94,68,42,30.53,30.40,11,5,16,0.00
2013-8-27,96,83,71,74,66,57,94,63,32,30.43,30.31,16,6,24,0.00
2013-8-28,97,82,68,73,66,62,90,62,36,30.40,30.32,11,4,14,0.00
2013-8-29,100,84,69,76,69,63,100,67,36,30.41,30.29,8,2,12,0.00
2013-8-30,100,88,77,75,70,64,87,62,35,30.31,30.16,13,6,21,0.00
2013-8-31,102,86,77,74,71,69,82,64,39,30.20,30.09,15,6,24,0.00
2013-9-1,98,80,69,76,68,60,100,73,35,30.24,30.12,12,2,17,0.00
2013-9-2,92,75,60,66,57,50,93,61,30,30.35,30.24,6,2,12,0.00
2013-9-3,91,70,50,64,51,43,96,60,23,30.45,30.33,9,1,14,0.00
2013-9-4,94,73,53,64,54,46,95,60,24,30.50,30.39,5,1,10,0.00
2013-9-5,94,75,59,70,59,55,97,65,32,30.54,30.45,5,1,8,0.00
2013-9-6,94,77,64,68,58,47,91,59,26,30.50,30.35,9,3,14,0.00
2013-9-7,97,80,65,68,63,58,88,60,34,30.37,30.23,12,5,16,0.00
2013-9-8,91,80,72,75,71,66,93,74,55,30.32,30.19,12,4,17,0.12
2013-9-9,97,84,74,73,67,56,88,62,30,30.31,30.22,14,6,21,0.00
2013-9-10,96,80,72,69,64,58,80,62,34,30.42,30.31,12,3,17,0.00
2013-9-11,77,75,71,63,62,62,74,66,62,30.42,30.40,3,1,4,0.00
2013-9-12,93,77,62,72,63,47,91,66,35,30.47,30.36,8,2,14,0.00
2013-9-13,83,66,50,58,48,42,92,57,29,30.50,30.41,8,2,11,0.00
2013-9-14,81,65,46,54,45,38,89,54,26,30.49,30.33,8,3,11,0.00
2013-9-15,82,70,61,67,56,46,89,65,46,30.47,30.31,11,5,15,0.00
2013-9-16,73,64,58,61,57,53,93,80,62,30.62,30.47,8,4,14,0.00
2013-9-17,70,64,59,67,61,53,100,91,78,30.56,30.37,6,3,10,0.00
2013-9-18,89,76,66,72,68,65,100,80,55,30.37,30.24,14,8,21,0.00
2013-9-19,92,81,73,71,69,68,86,70,51,30.29,30.15,15,8,20,0.00
2013-9-20,74,66,54,68,60,50,100,83,52,30.32,30.22,11,3,14,0.00
2013-9-21,79,61,48,57,50,45,96,71,37,30.36,30.25,6,1,9,0.00
2013-9-22,81,62,45,61,49,42,97,69,35,30.36,30.24,6,1,11,0.00
2013-9-23,81,64,50,57,51,46,93,67,38,30.34,30.21,10,3,14,0.00
2013-9-24,85,68,56,64,57,50,88,71,42,30.26,30.11,12,4,17,0.00
2013-9-25,78,68,60,69,64,58,100,87,66,30.24,30.14,4,1,6,0.00
2013-9-26,86,71,57,72,62,56,100,78,50,30.33,30.21,11,3,15,0.00
2013-9-27,87,73,63,69,63,59,93,73,47,30.40,30.28,11,5,15,0.00
2013-9-28,76,68,59,72,64,57,95,86,72,30.40,30.25,14,6,21,0.00
2013-9-29,78,61,50,63,53,47,100,78,44,30.44,30.31,5,1,8,0.00
2013-9-30,74,61,48,66,57,46,97,86,71,30.31,30.21,10,3,14,0.00
2013-10-1,84,72,62,72,65,59,100,82,51,30.33,30.23,10,5,14,0.00
2013-10-2,88,74,61,75,68,59,100,83,51,30.38,30.25,8,3,12,0.00
2013-10-3,84,76,68,72,69,65,95,81,62,30.27,30.14,13,7,21,0.00
2013-10-4,87,77,68,73,69,65,96,78,58,30.28,30.18,13,7,17,0.00
2013-10-5,76,60,48,70,57,46,95,89,80,30.30,30.20,12,5,15,0.00
2013-10-6,55,49,42,47,43,39,91,81,69,30.27,30.16,16,7,23,0.00
2013-10-7,72,57,48,53,48,45,93,73,43,30.46,30.26,8,4,11,0.00
2013-10-8,77,61,48,57,49,45,94,69,40,30.50,30.41,10,3,15,0.00
2013-10-9,79,60,45,56,47,42,94,67,33,30.50,30.40,7,2,10,0.00
2013-10-10,80,64,51,62,54,47,96,74,44,30.46,30.30,9,3,11,0.00
2013-10-11,79,68,56,65,60,54,95,76,59,30.32,30.17,14,7,21,0.00
2013-10-12,78,65,46,61,52,38,94,68,29,30.56,30.23,9,3,13,0.00
2013-10-13,78,56,39,53,39,32,96,62,23,30.73,30.56,6,1,9,0.00
2013-10-14,71,57,46,54,42,36,81,61,36,30.66,30.31,10,3,15,0.00
2013-10-15,64,59,49,61,53,18,100,82,58,30.35,30.19,13,7,18,0.00
2013-10-16,60,50,43,47,42,39,88,76,59,30.40,30.30,10,4,15,0.00
2013-10-17,65,54,46,51,45,42,100,76,48,30.33,30.22,15,5,20,0.00
2013-10-18,56,46,40,45,40,36,93,78,52,30.42,30.26,9,3,16,0.00
2013-10-19,58,46,37,44,38,36,96,78,49,30.37,30.24,15,8,21,0.00
2013-10-20,72,57,45,46,41,37,78,59,32,30.26,30.14,20,8,27,0.00
2013-10-21,57,49,39,42,37,32,77,64,46,30.41,30.23,12,3,16,0.00
2013-10-22,62,47,36,48,39,31,86,74,50,30.37,30.13,19,6,23,0.00
2013-10-23,48,39,31,39,33,28,93,80,52,30.48,30.37,10,2,12,0.00
2013-10-24,51,40,28,37,31,23,90,72,47,30.73,30.45,12,3,19,0.00
2013-10-25,56,41,26,37,26,22,92,62,33,30.81,30.48,11,4,17,0.00
2013-10-26,66,49,32,44,33,25,76,57,31,30.48,30.38,14,5,17,0.00
2013-10-27,62,42,25,39,28,22,92,64,31,30.47,30.30,9,2,12,0.00
2013-10-28,72,51,32,49,34,28,91,60,23,30.52,30.35,6,1,9,0.00
2013-10-29,61,54,46,60,51,38,100,88,66,30.52,30.33,8,2,13,0.00
2013-10-30,67,63,61,67,62,60,99,99,99,30.35,30.29,8,3,11,0.00
2013-10-31,63,56,45,62,56,45,100,99,95,30.11,29.80,13,6,15,0.00
2013-11-1,62,50,43,48,45,40,100,84,49,30.12,29.94,16,8,22,0.00
2013-11-2,56,46,34,46,39,31,93,77,58,30.51,30.21,10,4,14,0.00
2013-11-3,60,46,31,45,36,28,96,71,46,30.57,30.37,14,6,17,0.00
2013-11-4,62,55,48,50,45,39,83,70,62,30.49,30.35,15,7,20,0.00
2013-11-5,58,56,53,58,54,48,100,94,74,30.50,30.24,15,8,20,0.00
2013-11-6,60,44,33,59,42,31,100,92,80,30.62,30.19,14,5,18,0.00
2013-11-7,57,41,30,42,33,26,100,77,47,30.69,30.61,14,3,15,0.00
2013-11-8,61,46,28,38,33,24,92,65,42,30.66,30.29,17,7,23,0.00
2013-11-9,68,53,41,43,38,34,77,62,34,30.60,30.33,14,6,18,0.00
2013-11-10,58,44,34,38,33,29,88,66,38,30.75,30.55,5,0,7,0.00
2013-11-11,79,47,29,72,37,23,86,70,57,30.89,30.47,14,4,14,0.38
2013-11-12,41,28,19,26,17,11,83,66,41,31.12,30.89,5,0,9,0.00
2013-11-13,48,33,18,23,16,11,81,54,25,30.99,30.55,18,4,18,0.00
2013-11-14,36,36,36,19,19,18,50,50,49,30.55,30.52,10,9,15,0.00
2013-11-15,60,50,44,47,36,25,86,61,45,30.34,30.16,15,7,18,0.00
2013-11-16,67,60,51,60,55,-5,90,83,76,30.15,29.85,23,13,25,0.00
2013-11-17,118,61,0,100,46,-16,90,64,17,30.35,29.72,39,9,42,0.00
2013-11-18,57,44,31,38,32,26,90,68,38,30.61,30.35,0,0,0,0.00
2013-11-19,57,41,30,36,29,26,89,66,37,30.63,30.44,0,0,0,0.00
2013-11-20,45,41,38,41,34,26,92,77,53,30.44,30.29,0,0,0,0.00
2013-11-21,51,48,39,49,44,38,97,88,71,30.61,30.33,0,0,0,0.00
2013-11-22,39,33,27,38,31,24,97,92,87,30.88,30.61,0,0,0,0.00
2013-11-23,35,25,14,25,17,7,92,73,52,31.06,30.86,0,0,0,0.00
2013-11-24,32,21,10,17,11,5,86,66,46,31.05,30.68,0,0,0,0.00
2013-11-25,37,32,28,23,17,13,74,54,43,30.68,30.48,0,0,0,0.00
2013-11-26,41,30,21,33,20,11,89,70,48,30.63,30.42,0,0,0,0.00
2013-11-27,32,23,14,16,11,8,77,62,44,30.71,30.52,0,0,0,0.00
2013-11-28,48,32,24,27,19,14,74,60,43,30.81,30.48,0,0,0,0.00
2013-11-29,50,33,20,30,23,15,82,67,45,30.86,30.62,0,0,0,0.00
2013-11-30,57,42,32,40,32,25,87,71,52,30.62,30.40,11,2,14,0.00
2013-12-1,61,41,25,46,33,22,95,75,46,30.45,30.23,4,0,8,0.00
2013-12-2,57,45,36,47,39,32,92,81,67,30.24,29.98,10,2,12,0.00
2013-12-3,61,49,42,53,46,40,100,89,73,29.99,29.89,12,4,14,0.00
2013-12-4,62,47,28,55,44,22,97,87,70,30.27,29.85,17,4,24,0.00
2013-12-5,28,23,21,22,14,12,81,69,64,30.63,30.26,0,0,0,0.00
2013-12-6,23,18,11,12,7,2,69,63,54,30.92,30.62,0,0,0,0.00
2013-12-7,27,16,7,12,5,1,79,63,44,31.02,30.75,0,0,0,0.00
2013-12-8,25,22,18,23,17,7,93,81,60,30.75,30.31,0,0,0,0.00
2013-12-9,24,17,12,21,12,6,90,79,71,30.66,30.42,0,0,0,0.00
2013-12-10,37,22,9,19,12,4,80,64,45,30.60,30.51,0,0,1,0.00
2013-12-11,34,22,6,23,11,-1,79,63,40,30.94,30.57,0,0,0,0.00
2013-12-12,44,26,6,21,11,-1,74,57,33,30.91,30.53,0,0,0,0.00
2013-12-13,35,32,26,33,26,17,95,80,61,30.53,30.22,0,0,0,0.00
2013-12-14,33,32,30,31,30,28,94,93,93,30.35,30.18,0,0,0,0.00
2013-12-15,38,26,17,33,23,15,93,88,78,30.50,30.31,0,0,0,0.00
2013-12-16,38,27,21,34,25,20,94,90,81,30.47,30.28,0,0,0,0.00
2013-12-17,44,31,20,37,25,17,95,79,57,30.59,30.44,0,0,0,0.00
2013-12-18,55,40,21,37,28,16,82,63,47,30.57,30.19,8,0,14,0.00
2013-12-19,59,52,45,49,44,35,82,75,68,30.19,30.05,0,0,1,0.00
2013-12-20,55,40,28,52,38,28,100,93,82,30.23,30.01,0,0,1,0.00
2013-12-21,32,30,28,31,29,28,100,99,97,30.21,29.91,0,0,0,0.00
2013-12-22,31,27,16,31,26,14,100,96,88,30.65,29.93,0,0,0,0.00
2013-12-23,16,12,3,14,8,-1,90,86,81,30.91,30.64,0,0,0,0.00
2013-12-24,24,14,0,20,9,-4,87,82,77,30.90,30.56,0,0,0,0.00
2013-12-25,32,29,24,30,27,20,96,92,83,30.63,30.54,0,0,0,0.00
2013-12-26,46,34,21,37,29,20,95,84,66,30.64,30.52,0,0,1,0.00
2013-12-27,53,40,30,38,32,28,94,76,53,30.67,30.52,0,0,0,0.00
2013-12-28,56,44,35,36,31,28,78,62,44,30.52,30.22,0,0,2,0.00
2013-12-29,40,25,12,30,17,2,81,71,61,30.61,30.19,1,0,6,0.00
2013-12-30,28,18,7,15,7,0,78,62,49,30.64,30.47,0,0,1,0.00
2013-12-31,33,22,16,24,15,11,86,75,62,30.66,30.54,0,0,0,0.00
2014-1-1,37,25,15,24,18,11,84,76,59,30.50,30.37,0,0,0,0.00
2014-1-2,21,11,-4,11,4,-9,84,74,57,30.79,30.49,0,0,1,0.00